| time (UTC) | temp F | wind direction | speed MPH | gust MPH | rain 1hr in | rain 24hr in | rain mn in | humidity % | barometer mb |
| 20260831152518 | 74 | 150 | 1.0 | 5.0 | 0.04 | 0.21 | 0.13 | 81 | 1016.0 |
| 20260831151517 | 73 | 153 | 1.0 | 4.0 | 0.04 | 0.21 | 0.13 | 82 | 1016.0 |
| 20260831150518 | 74 | 131 | 2.0 | 4.0 | 0.04 | 0.21 | 0.13 | 80 | 1016.3 |
| 20260831145518 | 74 | 130 | 2.0 | 5.0 | 0.08 | 0.17 | 0.09 | 79 | 1016.1 |
| 20260831144518 | 74 | 98 | 0.0 | 4.0 | 0.08 | 0.16 | 0.09 | 81 | 1016.3 |
| 20260831143515 | 73 | 141 | 1.0 | 5.0 | 0.08 | 0.16 | 0.09 | 82 | 1016.4 |
| 20260831142516 | 73 | 120 | 1.0 | 3.0 | 0.08 | 0.18 | 0.09 | 82 | 1016.4 |
| 20260831141515 | 72 | 111 | 1.0 | 3.0 | 0.08 | 0.18 | 0.09 | 84 | 1016.4 |
| 20260831140516 | 72 | 133 | 0.0 | 2.0 | 0.08 | 0.20 | 0.09 | 83 | 1016.0 |
| 20260831135516 | 72 | 144 | 1.0 | 4.0 | 0.00 | 0.12 | 0.01 | 80 | 1015.8 |
| 20260831134516 | 72 | 165 | 0.0 | 3.0 | 0.00 | 0.14 | 0.01 | 81 | 1016.0 |
| 20260831133516 | 73 | 129 | 1.0 | 4.0 | 0.00 | 0.14 | 0.01 | 81 | 1016.2 |
| 20260831132536 | 73 | 115 | 0.0 | 2.0 | 0.00 | 0.17 | 0.01 | 78 | 1016.2 |
| 20260831131516 | 73 | 121 | 1.0 | 3.0 | 0.00 | 0.23 | 0.01 | 78 | 1016.0 |
| 20260831130516 | 73 | 142 | 0.0 | 3.0 | 0.00 | 0.24 | 0.01 | 77 | 1015.6 |
| 20260831125557 | 72 | 136 | 0.0 | 3.0 | 0.00 | 0.24 | 0.01 | 78 | 1015.4 |
| 20260831124537 | 72 | 117 | 0.0 | 2.0 | 0.00 | 0.24 | 0.01 | 78 | 1015.4 |
| 20260831123517 | 72 | 160 | 0.0 | 4.0 | 0.00 | 0.24 | 0.01 | 78 | 1015.3 |
| 20260831122517 | 72 | 129 | 0.0 | 2.0 | 0.01 | 0.24 | 0.01 | 78 | 1015.1 |
| 20260831121517 | 72 | 223 | 0.0 | 4.0 | 0.01 | 0.24 | 0.01 | 78 | 1015.2 |
| 20260831120519 | 72 | 177 | 0.0 | 3.0 | 0.01 | 0.24 | 0.01 | 78 | 1015.1 |
| 20260831115518 | 72 | 0.0 | 0.0 | 0.01 | 0.25 | 0.01 | 79 | 1015.0 | |
| 20260831114518 | 72 | 0.0 | 0.0 | 0.01 | 0.25 | 0.01 | 79 | 1015.0 | |
| 20260831113518 | 72 | 261 | 1.0 | 4.0 | 0.00 | 0.25 | 0.00 | 77 | 1015.1 |
| 20260831112516 | 72 | 288 | 1.0 | 3.0 | 0.00 | 0.24 | 0.00 | 77 | 1015.0 |
| 20260831111616 | 72 | 226 | 0.0 | 3.0 | 0.00 | 0.24 | 0.00 | 76 | 1014.8 |
| 20260831110516 | 73 | 270 | 0.0 | 3.0 | 0.00 | 0.24 | 0.00 | 75 | 1014.7 |
| 20260831105516 | 73 | 209 | 0.0 | 2.0 | 0.00 | 0.35 | 0.00 | 74 | 1014.7 |
| 20260831104516 | 73 | 264 | 0.0 | 3.0 | 0.00 | 0.36 | 0.00 | 74 | 1014.6 |
| 20260831103517 | 72 | 224 | 0.0 | 4.0 | 0.00 | 0.36 | 0.00 | 75 | 1014.6 |
| 20260831102536 | 72 | 145 | 0.0 | 2.0 | 0.00 | 0.36 | 0.00 | 76 | 1014.6 |
| 20260831101517 | 72 | 221 | 0.0 | 3.0 | 0.00 | 0.36 | 0.00 | 77 | 1014.6 |
| 20260831100517 | 72 | 154 | 0.0 | 1.0 | 0.00 | 0.36 | 0.00 | 76 | 1014.5 |
| 20260831095517 | 72 | 183 | 0.0 | 2.0 | 0.00 | 0.36 | 0.00 | 76 | 1014.6 |
| 20260831094517 | 72 | 204 | 0.0 | 2.0 | 0.00 | 0.36 | 0.00 | 77 | 1014.7 |
| 20260831093517 | 72 | 0.0 | 0.0 | 0.00 | 0.36 | 0.00 | 77 | 1014.6 | |
| 20260831092518 | 73 | 208 | 0.0 | 2.0 | 0.00 | 0.36 | 0.00 | 77 | 1014.7 |
| 20260831091518 | 73 | 157 | 0.0 | 3.0 | 0.00 | 0.36 | 0.00 | 77 | 1014.8 |
| 20260831090517 | 73 | 0.0 | 0.0 | 0.00 | 0.36 | 0.00 | 77 | 1014.8 | |
| 20260831085518 | 73 | 0.0 | 0.0 | 0.00 | 0.36 | 0.00 | 77 | 1014.8 | |
| 20260831084518 | 73 | 119 | 0.0 | 3.0 | 0.00 | 0.36 | 0.00 | 78 | 1014.7 |
| 20260831083535 | 73 | 129 | 0.0 | 2.0 | 0.00 | 0.36 | 0.00 | 78 | 1014.7 |
| 20260831082555 | 73 | 165 | 0.0 | 2.0 | 0.00 | 0.36 | 0.00 | 79 | 1014.7 |
| 20260831081516 | 73 | 266 | 0.0 | 3.0 | 0.00 | 0.36 | 0.00 | 79 | 1014.7 |
| 20260831080516 | 73 | 125 | 0.0 | 4.0 | 0.00 | 0.36 | 0.00 | 80 | 1014.7 |
| 20260831075516 | 73 | 121 | 0.0 | 2.0 | 0.00 | 0.36 | 0.00 | 80 | 1014.8 |
| 20260831074517 | 73 | 121 | 0.0 | 2.0 | 0.00 | 0.36 | 0.00 | 80 | 1014.7 |
| 20260831073537 | 73 | 66 | 0.0 | 1.0 | 0.00 | 0.36 | 0.00 | 81 | 1014.8 |
| 20260831072517 | 73 | 0.0 | 0.0 | 0.00 | 0.36 | 0.00 | 81 | 1014.9 | |
| 20260831071516 | 73 | 129 | 0.0 | 3.0 | 0.00 | 0.36 | 0.00 | 81 | 1014.8 |
| 20260831070517 | 73 | 123 | 0.0 | 3.0 | 0.00 | 0.36 | 0.00 | 80 | 1014.8 |
| 20260831065517 | 74 | 121 | 0.0 | 2.0 | 0.00 | 0.36 | 0.00 | 81 | 1014.8 |
| 20260831064517 | 74 | 112 | 0.0 | 3.0 | 0.00 | 0.36 | 0.00 | 80 | 1014.8 |
| 20260831063538 | 74 | 105 | 0.0 | 3.0 | 0.00 | 0.36 | 0.00 | 79 | 1014.9 |
| 20260831062517 | 74 | 59 | 0.0 | 2.0 | 0.00 | 0.36 | 0.00 | 79 | 1014.9 |
| 20260831061517 | 75 | 171 | 0.0 | 3.0 | 0.00 | 0.36 | 0.00 | 79 | 1014.8 |
| 20260831060518 | 75 | 153 | 0.0 | 4.0 | 0.00 | 0.36 | 0.00 | 78 | 1014.7 |
| 20260831055519 | 75 | 208 | 0.0 | 3.0 | 0.00 | 0.36 | 0.00 | 78 | 1014.6 |
| 20260831054518 | 75 | 177 | 0.0 | 2.0 | 0.00 | 0.36 | 0.00 | 78 | 1014.6 |
| 20260831053515 | 75 | 108 | 0.0 | 3.0 | 0.00 | 0.36 | 0.00 | 78 | 1014.9 |
| 20260831052515 | 75 | 81 | 0.0 | 1.0 | 0.00 | 0.36 | 0.00 | 78 | 1015.0 |
| 20260831051516 | 75 | 180 | 0.0 | 2.0 | 0.00 | 0.36 | 0.00 | 79 | 1015.0 |
| 20260831050516 | 75 | 79 | 0.0 | 2.0 | 0.00 | 0.36 | 0.00 | 79 | 1015.0 |
| 20260831045516 | 75 | 190 | 0.0 | 2.0 | 0.00 | 0.36 | 0.36 | 80 | 1014.9 |
| 20260831044516 | 76 | 115 | 0.0 | 1.0 | 0.00 | 0.36 | 0.36 | 80 | 1015.0 |
| 20260831043516 | 76 | 125 | 0.0 | 3.0 | 0.00 | 0.36 | 0.36 | 80 | 1015.2 |
| 20260831042517 | 75 | 228 | 0.0 | 2.0 | 0.00 | 0.36 | 0.36 | 81 | 1015.2 |
| 20260831041557 | 75 | 202 | 0.0 | 3.0 | 0.00 | 0.36 | 0.36 | 83 | 1015.3 |
| 20260831040517 | 75 | 208 | 0.0 | 3.0 | 0.00 | 0.36 | 0.36 | 84 | 1015.5 |
| 20260831035517 | 75 | 162 | 0.0 | 2.0 | 0.00 | 0.36 | 0.36 | 86 | 1015.7 |
| 20260831034518 | 75 | 0.0 | 0.0 | 0.00 | 0.36 | 0.36 | 87 | 1015.6 | |
| 20260831033518 | 75 | 0.0 | 0.0 | 0.00 | 0.36 | 0.36 | 87 | 1015.9 | |
| 20260831032518 | 75 | 50 | 0.0 | 1.0 | 0.01 | 0.36 | 0.36 | 86 | 1015.9 |
| 20260831031518 | 75 | 210 | 0.0 | 3.0 | 0.01 | 0.36 | 0.36 | 87 | 1015.7 |
| 20260831030518 | 74 | 189 | 0.0 | 2.0 | 0.03 | 0.36 | 0.36 | 88 | 1015.8 |
| 20260831025518 | 74 | 281 | 0.0 | 2.0 | 0.03 | 0.36 | 0.36 | 90 | 1015.9 |
| 20260831024515 | 74 | 0.0 | 0.0 | 0.03 | 0.35 | 0.35 | 90 | 1016.1 | |
| 20260831023536 | 74 | 70 | 0.0 | 1.0 | 0.03 | 0.35 | 0.35 | 89 | 1016.3 |
| 20260831022517 | 75 | 102 | 1.0 | 3.0 | 0.03 | 0.35 | 0.35 | 86 | 1016.4 |
| 20260831021516 | 76 | 0.0 | 0.0 | 0.02 | 0.35 | 0.35 | 85 | 1016.3 | |
| 20260831020536 | 76 | 114 | 0.0 | 3.0 | 0.01 | 0.33 | 0.33 | 85 | 1015.8 |
| 20260831015517 | 76 | 204 | 1.0 | 3.0 | 0.00 | 0.33 | 0.33 | 85 | 1015.9 |
| 20260831014516 | 76 | 202 | 0.0 | 2.0 | 0.00 | 0.33 | 0.33 | 84 | 1016.0 |
| 20260831013517 | 76 | 235 | 0.0 | 2.0 | 0.00 | 0.33 | 0.33 | 84 | 1015.9 |
| 20260831012517 | 76 | 0.0 | 0.0 | 0.00 | 0.33 | 0.33 | 83 | 1015.6 | |
| 20260831011517 | 76 | 88 | 0.0 | 2.0 | 0.00 | 0.33 | 0.33 | 82 | 1015.4 |
| 20260831010517 | 76 | 229 | 0.0 | 2.0 | 0.00 | 0.33 | 0.33 | 82 | 1015.4 |
| 20260831005517 | 76 | 122 | 0.0 | 3.0 | 0.00 | 0.33 | 0.33 | 83 | 1014.9 |
| 20260831004517 | 76 | 201 | 1.0 | 3.0 | 0.00 | 0.33 | 0.33 | 83 | 1014.9 |
| 20260831003518 | 76 | 0.0 | 0.0 | 0.00 | 0.33 | 0.33 | 85 | 1015.4 | |
| 20260831002518 | 76 | 118 | 0.0 | 2.0 | 0.00 | 0.33 | 0.33 | 84 | 1015.9 |
| 20260831001518 | 76 | 134 | 0.0 | 1.0 | 0.02 | 0.33 | 0.33 | 84 | 1015.9 |
| 20260831000515 | 76 | 37 | 0.0 | 1.0 | 0.02 | 0.33 | 0.33 | 86 | 1015.4 |
| 20260830235556 | 76 | 185 | 1.0 | 4.0 | 0.02 | 0.33 | 0.33 | 86 | 1015.4 |
| 20260830234516 | 76 | 134 | 1.0 | 3.0 | 0.02 | 0.33 | 0.33 | 85 | 1015.6 |
| 20260830233516 | 77 | 182 | 1.0 | 3.0 | 0.02 | 0.32 | 0.32 | 85 | 1015.7 |
| 20260830232516 | 77 | 115 | 0.0 | 2.0 | 0.02 | 0.32 | 0.32 | 85 | 1016.2 |
| 20260830231517 | 78 | 98 | 0.0 | 3.0 | 0.00 | 0.31 | 0.31 | 81 | 1016.0 |
| 20260830230516 | 78 | 99 | 0.0 | 3.0 | 0.00 | 0.31 | 0.31 | 80 | 1016.4 |
| 20260830225516 | 78 | 126 | 0.0 | 1.0 | 0.00 | 0.31 | 0.31 | 79 | 1016.3 |
| 20260830224517 | 79 | 0.0 | 0.0 | 0.00 | 0.31 | 0.30 | 78 | 1016.5 | |
| 20260830223517 | 79 | 121 | 0.0 | 0.0 | 0.00 | 0.31 | 0.30 | 77 | 1016.3 |
| 20260830222517 | 79 | 116 | 0.0 | 2.0 | 0.00 | 0.31 | 0.30 | 76 | 1016.1 |
| 20260830221517 | 79 | 111 | 0.0 | 3.0 | 0.00 | 0.31 | 0.30 | 76 | 1015.9 |
| 20260830220517 | 79 | 131 | 1.0 | 4.0 | 0.00 | 0.31 | 0.30 | 76 | 1015.8 |
| 20260830215538 | 80 | 112 | 1.0 | 3.0 | 0.00 | 0.31 | 0.30 | 73 | 1015.9 |
| 20260830214518 | 80 | 0.0 | 0.0 | 0.00 | 0.31 | 0.30 | 72 | 1016.2 | |
| 20260830213538 | 81 | 0.0 | 0.0 | 0.00 | 0.31 | 0.30 | 71 | 1016.2 | |
| 20260830212538 | 81 | 78 | 0.0 | 2.0 | 0.00 | 0.31 | 0.30 | 70 | 1016.3 |
| 20260830211518 | 81 | 277 | 0.0 | 3.0 | 0.00 | 0.31 | 0.30 | 70 | 1016.4 |
| 20260830210516 | 82 | 273 | 2.0 | 4.0 | 0.00 | 0.31 | 0.30 | 69 | 1016.3 |
| 20260830205515 | 80 | 268 | 1.0 | 3.0 | 0.00 | 0.31 | 0.30 | 70 | 1016.3 |
| 20260830204515 | 79 | 278 | 1.0 | 3.0 | 0.00 | 0.31 | 0.30 | 72 | 1016.3 |
| 20260830203516 | 79 | 278 | 0.0 | 3.0 | 0.00 | 0.31 | 0.30 | 74 | 1016.4 |
| 20260830202516 | 79 | 282 | 1.0 | 5.0 | 0.01 | 0.31 | 0.30 | 74 | 1016.5 |
| 20260830201516 | 79 | 267 | 2.0 | 5.0 | 0.01 | 0.31 | 0.30 | 72 | 1016.3 |
| 20260830200517 | 79 | 273 | 1.0 | 5.0 | 0.01 | 0.31 | 0.30 | 71 | 1016.3 |
| 20260830195557 | 79 | 246 | 1.0 | 4.0 | 0.01 | 0.31 | 0.30 | 72 | 1016.2 |
| 20260830194517 | 78 | 247 | 0.0 | 3.0 | 0.01 | 0.31 | 0.30 | 75 | 1016.2 |
| 20260830193537 | 78 | 268 | 0.0 | 3.0 | 0.01 | 0.31 | 0.30 | 74 | 1016.2 |
| 20260830192517 | 79 | 275 | 1.0 | 6.0 | 0.00 | 0.30 | 0.29 | 70 | 1016.1 |
| 20260830191518 | 80 | 268 | 2.0 | 7.0 | 0.00 | 0.30 | 0.29 | 68 | 1016.0 |
| 20260830190518 | 82 | 265 | 4.0 | 8.0 | 0.00 | 0.30 | 0.29 | 66 | 1016.0 |
| 20260830185518 | 82 | 270 | 2.0 | 8.0 | 0.00 | 0.30 | 0.29 | 65 | 1015.9 |
| 20260830184518 | 82 | 270 | 2.0 | 5.0 | 0.00 | 0.30 | 0.29 | 65 | 1015.8 |
| 20260830183515 | 82 | 257 | 2.0 | 7.0 | 0.00 | 0.30 | 0.29 | 64 | 1015.5 |
| 20260830182515 | 83 | 245 | 2.0 | 7.0 | 0.00 | 0.30 | 0.29 | 64 | 1015.4 |
| 20260830181515 | 80 | 247 | 1.0 | 5.0 | 0.00 | 0.30 | 0.29 | 67 | 1015.5 |
| 20260830180515 | 80 | 225 | 3.0 | 7.0 | 0.00 | 0.30 | 0.29 | 68 | 1015.5 |
| 20260830175515 | 79 | 269 | 2.0 | 7.0 | 0.00 | 0.30 | 0.29 | 68 | 1015.7 |
| 20260830174536 | 79 | 260 | 2.0 | 6.0 | 0.00 | 0.30 | 0.29 | 69 | 1015.7 |
| 20260830173516 | 77 | 237 | 3.0 | 8.0 | 0.00 | 0.30 | 0.29 | 72 | 1015.5 |
| 20260830172516 | 76 | 279 | 2.0 | 7.0 | 0.00 | 0.30 | 0.29 | 75 | 1015.8 |
| 20260830171517 | 76 | 257 | 2.0 | 7.0 | 0.00 | 0.30 | 0.29 | 75 | 1015.9 |
| 20260830170517 | 76 | 256 | 3.0 | 7.0 | 0.00 | 0.30 | 0.29 | 75 | 1016.0 |
| 20260830165517 | 75 | 253 | 3.0 | 8.0 | 0.00 | 0.30 | 0.29 | 75 | 1016.2 |
| 20260830164517 | 75 | 247 | 2.0 | 7.0 | 0.00 | 0.30 | 0.29 | 76 | 1016.3 |
| 20260830163518 | 74 | 232 | 2.0 | 6.0 | 0.01 | 0.30 | 0.29 | 79 | 1016.3 |
| 20260830162518 | 74 | 250 | 2.0 | 5.0 | 0.01 | 0.30 | 0.29 | 79 | 1016.3 |
| 20260830161538 | 73 | 261 | 1.0 | 6.0 | 0.01 | 0.30 | 0.29 | 79 | 1016.1 |
| 20260830160536 | 72 | 218 | 1.0 | 4.0 | 0.01 | 0.30 | 0.29 | 81 | 1015.9 |
| 20260830155556 | 71 | 190 | 1.0 | 6.0 | 0.01 | 0.30 | 0.29 | 83 | 1015.6 |
| 20260830154536 | 71 | 178 | 1.0 | 3.0 | 0.01 | 0.30 | 0.29 | 84 | 1015.6 |
| 20260830153516 | 71 | 159 | 1.0 | 4.0 | 0.00 | 0.29 | 0.28 | 84 | 1016.0 |